Location: Arpaise
(41.0333°N, 14.7333°E)
Time: 01:08:36
(UTC+00:00)

ATLAS 2AS CENTAUR R/B - Pass Details

Date: 05 July 2020
Orbit: 930 x 1282 km, 63.7° (Epoch: 19 July)

Event Time Altitude Azimuth Distance (km) Brightness Sun altitude
Rises 22:34:43 0° 323° (NW) 4,140 6.7 -25.9°
Reaches altitude 10° 22:37:35 10° 322° (NW) 3,129 5.9 -26.0°
Maximum altitude 22:44:59 69° 241° (WSW) 1,192 2.7 -26.1°
Enters shadow 22:46:18 57° 188° (S) 1,284 2.7 -26.1°
